Location: Newark
(44.6768°N, 22.5302°E)
Time: 17:03:10
(UTC+00:00)

UKube-1 - Pass Details

Date: 09 July 2022
Orbit: 608 x 615 km, 98.4° (Epoch: 18 August)

Event Time Altitude Azimuth Distance (km) Brightness Sun altitude
Rises 20:53:40 0° 10° (N) 2,891 ? -19.1°
Reaches altitude 10° 20:55:53 10° 6° (N) 1,980 ? -19.3°
Maximum altitude 21:00:06 59° 288° (WNW) 708 ? -19.6°
Enters shadow 21:02:18 27° 217° (SW) 1,193 ? -19.8°
